Weather History for Kununurra, WE

Change the Weather History Date:

Monday, August 19, 2013

  Actual Average Record
Temperature  
Mean Temperature 80 °F -  
Max Temperature 98 °F - - ()
Min Temperature 63 °F - - ()
Cooling Degree Days 16    
Growing Degree Days 30 (Base 50)    
Moisture  
Dew Point 61 °F    
Average Humidity 55    
Maximum Humidity 94    
Minimum Humidity 15    
Precipitation  
Precipitation 0.00 in - - ()
Sea Level Pressure  
Sea Level Pressure 29.88 in    
Wind  
Wind Speed 3 mph ()    
Max Wind Speed 9 mph    
Max Gust Speed -    
Visibility 12.0 miles    
Events      
T = Trace of Precipitation, MM = Missing Value Source: Averaged Metar Reports

Daily Weather History Graph

Daily Weather History Graph

Search for Another Location

Airport:

Trip Planner

Search our weather history database for the weather conditions in past years. The results will help you decide how hot, cold, wet, or windy it might be!

Date:

Astronomy

Aug. 19, 2013 Rise Set
Actual Time 5:40 AM AWST 5:17 PM AWST
Civil Twilight 5:18 AM AWST 5:39 PM AWST
Nautical Twilight 4:52 AM AWST 6:05 PM AWST
Astronomical Twilight 4:27 AM AWST 6:30 PM AWST
Moon 3:30 PM AWST (8/19) 3:37 AM AWST (8/19)
Length of Visible Light 12h 21m
Length of Day
11h 37m
Waxing Gibbous, 95% of the Moon is Illuminated
Aug 19
Waxing Gibbous
Aug 21
Full
Aug 28
Last Quarter
Sep 5
New
Sep 13
First Quarter

Hourly Weather History & Observations

Time (AWST) Temp. Heat Index Dew Point Humidity Pressure Visibility Wind Dir Wind Speed Gust Speed Precip Events Conditions
12:00 AM 71 °F - 64 °F 71% 29.93 in - North 3.5 mph - -  
12:00 AM 71.6 °F - 64.4 °F 78% 29.92 in - North 3.5 mph - N/A   Unknown
12:30 AM 69.8 °F - 64.4 °F 83% 29.92 in - NNE 2.3 mph - N/A   Unknown
1:00 AM 69.8 °F - 62.6 °F 78% 29.92 in - NNE 1.2 mph - N/A   Unknown
1:30 AM 68.0 °F - 64.4 °F 88% 29.92 in - South 2.3 mph - N/A   Unknown
2:00 AM 68.0 °F - 66.2 °F 94% 29.89 in - South 1.2 mph - N/A   Unknown
2:30 AM 66.2 °F - 62.6 °F 88% 29.89 in - Calm Calm - N/A   Unknown
3:00 AM 65 °F - 61 °F 82% 29.91 in - Calm Calm - -  
3:00 AM 64.4 °F - 60.8 °F 88% 29.89 in - Calm Calm - N/A   Unknown
3:30 AM 64.4 °F - 62.6 °F 94% 29.89 in - Calm Calm - N/A   Unknown
4:00 AM 66.2 °F - 62.6 °F 88% 29.92 in - South 1.2 mph - N/A   Unknown
4:30 AM 64.4 °F - 60.8 °F 88% 29.92 in - Calm Calm - N/A   Unknown
5:00 AM 65 °F - 63 °F 92% 29.92 in - Calm Calm - -  
5:00 AM 66.2 °F - 62.6 °F 88% 29.92 in - Calm Calm - N/A   Unknown
5:30 AM 66.2 °F - 64.4 °F 94% 29.92 in - South 4.6 mph - N/A   Unknown
6:00 AM 64.4 °F - 60.8 °F 88% 29.92 in - South 1.2 mph - N/A   Unknown
6:30 AM 68.0 °F - 64.4 °F 88% 29.92 in - NE 5.8 mph - N/A   Unknown
7:00 AM 71.6 °F - 66.2 °F 83% 29.95 in - NNE 4.6 mph - N/A   Unknown
7:30 AM 75.2 °F - 66.2 °F 73% 29.95 in - North 5.8 mph - N/A   Unknown
8:00 AM 80 °F - 66 °F 53% 29.96 in - North 4.6 mph - -  
8:00 AM 80.6 °F 82.7 °F 66.2 °F 61% 29.95 in - North 4.6 mph - N/A   Unknown
8:30 AM 82.4 °F 83.9 °F 64.4 °F 54% 29.95 in - NE 3.5 mph - N/A   Unknown
9:00 AM 83 °F - 64 °F 42% 29.96 in 12 mi ENE 3.5 mph - -   Partly Cloudy
9:00 AM 84.2 °F 85.6 °F 64.4 °F 51% 29.95 in - ENE 3.5 mph - N/A   Unknown
9:30 AM 86.0 °F 86.6 °F 62.6 °F 45% 29.95 in - SSE 5.8 mph - N/A   Unknown
10:00 AM 87.8 °F 88.5 °F 62.6 °F 43% 29.95 in - South 5.8 mph - N/A   Unknown
10:30 AM 89.6 °F 88.9 °F 59.0 °F 36% 29.92 in - SSE 4.6 mph - N/A   Unknown
11:00 AM 92 °F - 58 °F 22% 29.91 in - ENE 5.8 mph - -  
11:00 AM 91.4 °F 89.9 °F 57.2 °F 31% 29.92 in - ENE 5.8 mph - N/A   Unknown
11:30 AM 93.2 °F 91.9 °F 57.2 °F 30% 29.89 in - NE 6.9 mph - N/A   Unknown
12:00 PM 93 °F - 56 °F 20% 29.87 in - ESE 6.9 mph - -  
12:00 PM 93.2 °F 91.9 °F 57.2 °F 30% 29.86 in - ESE 6.9 mph - N/A   Unknown
12:30 PM 93.2 °F 91.9 °F 57.2 °F 30% 29.86 in - SW 5.8 mph - N/A   Unknown
1:00 PM 95.0 °F 93.7 °F 57.2 °F 28% 29.83 in - North 5.8 mph - N/A   Unknown
1:30 PM 96.8 °F 95.1 °F 55.4 °F 25% 29.80 in - ENE 8.1 mph - N/A   Unknown
2:00 PM 97 °F - 53 °F 15% 29.81 in - East 9.2 mph - -  
2:00 PM 96.8 °F 94.4 °F 53.6 °F 23% 29.80 in - East 9.2 mph - N/A   Unknown
2:30 PM 96.8 °F 94.4 °F 53.6 °F 23% 29.80 in - NE 5.8 mph - N/A   Unknown
3:00 PM 96 °F - 55 °F 17% 29.79 in 12 mi North 4.6 mph - -   Partly Cloudy
3:00 PM 96.8 °F 95.1 °F 55.4 °F 25% 29.77 in - North 4.6 mph - N/A   Unknown
3:30 PM 96.8 °F 95.1 °F 55.4 °F 25% 29.80 in - East 5.8 mph - N/A   Unknown
4:00 PM 96.8 °F 95.1 °F 55.4 °F 25% 29.80 in - WNW 4.6 mph - N/A   Unknown
4:30 PM 96.8 °F 95.1 °F 55.4 °F 25% 29.80 in - East 3.5 mph - N/A   Unknown
5:00 PM 93 °F - 58 °F 21% 29.81 in - North 4.6 mph - -  
5:00 PM 93.2 °F 91.9 °F 57.2 °F 30% 29.80 in - North 4.6 mph - N/A   Unknown
5:30 PM 89.6 °F 88.9 °F 59.0 °F 36% 29.80 in - North 6.9 mph - N/A   Unknown
6:00 PM 86 °F - 59 °F 30% 29.83 in - NNW 6.9 mph - -  
6:00 PM 86.0 °F 85.4 °F 59.0 °F 40% 29.83 in - NNW 6.9 mph - N/A   Unknown
6:30 PM 84.2 °F 84.4 °F 60.8 °F 45% 29.83 in - Calm Calm - N/A   Unknown
7:00 PM 80.6 °F 81.5 °F 60.8 °F 51% 29.86 in - North 9.2 mph - N/A   Unknown
7:30 PM 80.6 °F 81.8 °F 62.6 °F 54% 29.86 in - North 9.2 mph - N/A   Unknown
8:00 PM 78 °F - 63 °F 50% 29.88 in - North 5.8 mph - -  
8:00 PM 78.8 °F - 62.6 °F 57% 29.89 in - North 5.8 mph - N/A   Unknown
8:30 PM 77.0 °F - 62.6 °F 61% 29.89 in - NNW 3.5 mph - N/A   Unknown
9:00 PM 77 °F - 63 °F 52% 29.89 in - Calm Calm - -  
9:00 PM 77.0 °F - 62.6 °F 61% 29.89 in - Calm Calm - N/A   Unknown
9:30 PM 75.2 °F - 62.6 °F 65% 29.89 in - Calm Calm - N/A   Unknown
10:00 PM 75.2 °F - 66.2 °F 73% 29.89 in - Calm Calm - N/A   Unknown
10:30 PM 73.4 °F - 64.4 °F 73% 29.86 in - Calm Calm - N/A   Unknown
11:00 PM 73 °F - 64 °F 66% 29.88 in - Calm Calm - -  
11:00 PM 73.4 °F - 64.4 °F 73% 29.86 in - Calm Calm - N/A   Unknown
11:30 PM 71.6 °F - 64.4 °F 78% 29.86 in - Calm Calm - N/A   Unknown